Weather History for Pittsburgh Allegheny Co., PA

Change the Weather History Date:

Friday, October 4, 2013

  Actual Average Record
Temperature  
Mean Temperature 72 °F -  
Max Temperature 81 °F 69 °F 86 °F (2007)
Min Temperature 63 °F 46 °F 33 °F (1996)
Cooling Degree Days 6    
Growing Degree Days 22 (Base 50)    
Moisture  
Dew Point 65 °F    
Average Humidity 85    
Maximum Humidity 100    
Minimum Humidity 56    
Precipitation  
Precipitation 0.23 in - - ()
Sea Level Pressure  
Sea Level Pressure 30.08 in    
Wind  
Wind Speed 6 mph (SSW)    
Max Wind Speed 16 mph    
Max Gust Speed 25 mph    
Visibility 8 miles    
Events Rain    
Averages and records for this station are not official NWS values.
T = Trace of Precipitation, MM = Missing Value Source: NWS Daily Summary

Daily Weather History Graph

Daily Weather History Graph

Search for Another Location

Airport:

Trip Planner

Search our weather history database for the weather conditions in past years. The results will help you decide how hot, cold, wet, or windy it might be!

Date:

Astronomy

Oct. 04, 2013 Rise Set
Actual Time 7:19 AM EDT 6:56 PM EDT
Civil Twilight 6:52 AM EDT 7:23 PM EDT
Nautical Twilight 6:20 AM EDT 7:55 PM EDT
Astronomical Twilight 5:48 AM EDT 8:26 PM EDT
Moon 6:53 AM EDT (10/4) 6:38 PM EDT (10/4)
Length of Visible Light 12h 31m
Length of Day
11h 37m
Waning Crescent, 0% of the Moon is Illuminated
Oct 4
Waning Crescent
Oct 4
New
Oct 11
First Quarter
Oct 18
Full
Oct 26
Last Quarter

Hourly Weather History & Observations

Time (EDT) Temp. Heat Index Dew Point Humidity Pressure Visibility Wind Dir Wind Speed Gust Speed Precip Events Conditions
12:53 AM 64.9 °F - 64.0 °F 97% 30.06 in 9.0 mi South 6.9 mph - N/A   Mostly Cloudy
1:53 AM 64.9 °F - 64.0 °F 97% 30.06 in 7.0 mi South 6.9 mph - N/A   Partly Cloudy
2:53 AM 64.9 °F - 63.0 °F 93% 30.06 in 9.0 mi South 3.5 mph - N/A   Clear
3:53 AM 64.0 °F - 63.0 °F 96% 30.06 in 8.0 mi South 4.6 mph - N/A   Clear
4:53 AM 64.0 °F - 63.0 °F 96% 30.07 in 8.0 mi Calm Calm - N/A   Clear
5:53 AM 63.0 °F - 63.0 °F 100% 30.08 in 10.0 mi South 5.8 mph - N/A   Overcast
6:53 AM 64.0 °F - 63.0 °F 96% 30.09 in 8.0 mi South 4.6 mph - N/A   Overcast
7:53 AM 64.0 °F - 63.0 °F 96% 30.10 in 3.0 mi South 5.8 mph - N/A   Mostly Cloudy
8:53 AM 64.9 °F - 64.0 °F 97% 30.13 in 5.0 mi South 8.1 mph - N/A   Overcast
9:53 AM 66.9 °F - 64.9 °F 93% 30.13 in 6.0 mi South 8.1 mph - N/A   Scattered Clouds
10:53 AM 71.1 °F - 66.0 °F 84% 30.11 in 10.0 mi SSW 5.8 mph - N/A   Clear
11:53 AM 73.9 °F - 66.0 °F 76% 30.10 in 10.0 mi SW 6.9 mph - N/A   Scattered Clouds
12:53 PM 78.1 °F - 66.0 °F 66% 30.09 in 10.0 mi SSW 9.2 mph - N/A   Overcast
1:13 PM 77.0 °F - 64.4 °F 65% 30.09 in 10.0 mi SW 9.2 mph - N/A   Scattered Clouds
1:53 PM 78.1 °F - 64.9 °F 64% 30.07 in 10.0 mi SW 9.2 mph - N/A   Mostly Cloudy
2:53 PM 80.1 °F 81.5 °F 63.0 °F 56% 30.06 in 10.0 mi SSW 11.5 mph - N/A   Scattered Clouds
3:53 PM 80.1 °F 81.5 °F 63.0 °F 56% 30.05 in 10.0 mi Variable 6.9 mph - N/A   Partly Cloudy
4:53 PM 79.0 °F - 62.1 °F 56% 30.05 in 10.0 mi WSW 9.2 mph - N/A   Mostly Cloudy
5:42 PM 71.6 °F - 66.2 °F 83% 30.06 in 1.8 mi NNW 16.1 mph 25.3 mph 0.05 in Rain Heavy Rain
5:53 PM 68.0 °F - 66.0 °F 93% 30.07 in 7.0 mi North 4.6 mph 19.6 mph 0.23 in   Overcast
6:53 PM 71.1 °F - 66.0 °F 84% 30.07 in 10.0 mi West 4.6 mph - N/A   Mostly Cloudy
7:53 PM 71.1 °F - 66.9 °F 87% 30.08 in 7.0 mi Calm Calm - N/A   Mostly Cloudy
8:53 PM 70.0 °F - 66.9 °F 90% 30.08 in 6.0 mi Calm Calm - N/A   Partly Cloudy
9:53 PM 69.1 °F - 66.9 °F 93% 30.08 in 5.0 mi SE 3.5 mph - N/A   Partly Cloudy
10:53 PM 69.1 °F - 66.0 °F 90% 30.09 in 4.0 mi South 3.5 mph - N/A   Clear
11:53 PM 68.0 °F - 66.9 °F 96% 30.09 in 3.0 mi Calm Calm - N/A   Clear